Voltar ao catálogo

USA 229

AtivoMilitarLEO
NORAD 37386·PAYLOAD·🇺🇸 United States

Lançado Apr 15, 2011 de Vandenberg Space Force Base

Loading…

Próximas Passagens (próximas 24 horas)

TLE

ObsoletoSource: Mike McCants

Época: Aug 15, 2026, 20:34 UTC

1 37386U 11014A   26227.85727366 0.00000100  00000-0  12288-3 0    05
2 37386  63.4219 129.0480 0361632 356.7576   3.2424 13.41004111    09

Acompanhe USA 229 em tempo real com AllMySat

Download on the App Store